Home   Weather   Hat Yai   Past weeks

Flag for Thailand Past Weather in Hat Yai, Thailand — Yesterday and Last 2 Weeks

Now
84 °F

Passing clouds.


Feels Like: 94 °F
Forecast: 76 / 91 °F
Wind: 2 mph from South

Location: Hat Yai Airport

Current Time: Sep 25, 2016 at 9:06:00 AM

Latest Report: Sep 25, 2016 at 8:30 AM


Visibility: N/A

Pressure: 29.80 "Hg

Humidity: 79%

Dew Point: 77 °F

Location of Hat YaiLocation

Past Weather in Hat Yai — Graph

°F

Hat Yai Temperature Yesterday

Maximum temperature yesterday: 93 °F (at 1:30 PM)
Minimum temperature yesterday: 73 °F (at 4:00 AM)
Average temperature yesterday: 82 °F

High & Low Weather Summary for the Past Weeks

 TemperatureHumidityPressure
High95 °F (Sep 15, 1:30 PM)100% (Sep 10, 8:00 AM)29.89 "Hg (Sep 10, 8:00 AM)
Low73 °F (Sep 11, 4:30 AM)44% (Sep 24, 1:30 PM)29.65 "Hg (Sep 24, 4:00 PM)
Average82 °F84%29.79 "Hg
* Reported Sep 10 8:00 AM — Sep 25 8:00 AM, Hat Yai, Weather by CustomWeather, © 2016

Note: Actual official high and low records may vary slightly from our data, if they occured in-between our weather recording intervals... More about our weather records

Advertising

Hat Yai Weather History for the Previous 24 Hours

Scroll right to see more
 ConditionsComfort  
Time TempWeatherWind HumidityBarometerVisibility
8:00 AM
Sun, Sep 25
81 °FPassing clouds.2 mph94%29.80 "HgN/A
7:30 AM79 °FPassing clouds.2 mph100%29.80 "Hg6 mi
7:00 AM75 °FPassing clouds.2 mph100%29.80 "Hg6 mi
6:30 AM75 °FPassing clouds.No wind100%29.77 "Hg5 mi
6:00 AM73 °FPassing clouds.No wind100%29.77 "Hg5 mi
5:30 AM73 °FPassing clouds.No wind100%29.74 "Hg5 mi
5:00 AM75 °FPassing clouds.2 mph100%29.74 "Hg5 mi
4:30 AM75 °FPassing clouds.2 mph100%29.74 "Hg5 mi
4:00 AM75 °FPassing clouds.2 mph100%29.74 "Hg5 mi
3:30 AM75 °FPassing clouds.No wind100%29.74 "Hg5 mi
3:00 AM75 °FPassing clouds.No wind100%29.74 "Hg5 mi
2:30 AM75 °FPassing clouds.2 mph100%29.74 "HgN/A
2:00 AM75 °FPassing clouds.2 mph100%29.74 "HgN/A
1:30 AM75 °FPassing clouds.3 mph100%29.74 "HgN/A
1:00 AM75 °FPassing clouds.3 mph100%29.77 "HgN/A
12:30 AM77 °FPassing clouds.2 mph100%29.77 "HgN/A
12:00 AM77 °FPassing clouds.5 mph100%29.77 "HgN/A
11:30 PM
Sat, Sep 24
77 °FPassing clouds.5 mph100%29.77 "HgN/A
11:00 PM77 °FPassing clouds.3 mph94%29.77 "HgN/A
10:30 PM81 °FPassing clouds.6 mph84%29.77 "HgN/A
10:00 PM81 °FPassing clouds.6 mph84%29.77 "HgN/A
9:30 PM81 °FPassing clouds.5 mph84%29.77 "HgN/A
9:00 PM81 °FPassing clouds.5 mph84%29.77 "HgN/A
8:30 PM82 °FPassing clouds.5 mph74%29.74 "HgN/A
8:00 PM82 °FPassing clouds.5 mph74%29.74 "HgN/A
7:30 PM82 °FPassing clouds.6 mph74%29.74 "HgN/A
7:00 PM84 °FPassing clouds.7 mph70%29.71 "HgN/A
6:30 PM84 °FPassing clouds.7 mph66%29.71 "HgN/A
6:00 PM86 °FPassing clouds.12 mph62%29.68 "HgN/A
5:30 PM88 °FPassing clouds.14 mph59%29.68 "HgN/A
5:00 PM88 °FPassing clouds.13 mph59%29.68 "HgN/A
4:30 PM90 °FPassing clouds.15 mph59%29.65 "HgN/A
4:00 PM90 °FPassing clouds.14 mph55%29.65 "HgN/A
3:30 PM91 °FPassing clouds.14 mph56%29.68 "HgN/A
3:00 PM91 °FPassing clouds.16 mph52%29.68 "HgN/A
2:30 PM91 °FScattered clouds.17 mph49%29.68 "HgN/A
2:00 PM91 °FScattered clouds.16 mph49%29.68 "HgN/A
1:30 PM93 °FPassing clouds.17 mph44%29.71 "HgN/A
1:00 PM91 °FPassing clouds.14 mph52%29.71 "HgN/A
12:30 PM91 °FPassing clouds.15 mph52%29.71 "HgN/A
12:00 PM90 °FPassing clouds.16 mph55%29.74 "HgN/A
11:30 AM91 °FPassing clouds.13 mph56%29.77 "HgN/A
11:00 AM91 °FPassing clouds.17 mph52%29.77 "HgN/A
10:30 AM90 °FPassing clouds.15 mph59%29.80 "HgN/A
10:00 AM90 °FPassing clouds.13 mph63%29.80 "HgN/A
9:30 AM88 °FPassing clouds.8 mph62%29.80 "HgN/A
9:00 AM86 °FPassing clouds.6 mph75%29.80 "HgN/A
Weather by CustomWeather, © 2016

See weather overviewHow to use our weather pages